This is the latest recevied weather packets stored in our database for station/object DB0GMN-13. If no packets are shown the sender has not sent any weather packets the latest 10 day(s).
| Time | Temp. | Humidity | Pressure | Rain* | Wind** | Luminosity | Snow |
|---|---|---|---|---|---|---|---|
| 1777386963 | 14.44° C | 75% | 1025.5 hPa | 0 mm | - | 528 W/m² | - |
| 1777380943 | 3.33° C | 99% | 1026.1 hPa | 0 mm | - | 765 W/m² | - |
| 1777377362 | - | - | 1026.3 hPa | 0 mm | - | 827 W/m² | - |
| 1777372532 | - | - | 1026.4 hPa | 0 mm | - | 829 W/m² | - |
| 1777370718 | - | - | 1026.3 hPa | 0 mm | - | 801 W/m² | - |
| 1777369570 | - | - | 1026.5 hPa | 0 mm | - | 785 W/m² | - |
| 1777368364 | - | 69% | 1026.6 hPa | 0 mm | - | 742 W/m² | - |
| 1777367156 | - | 99% | 1026.5 hPa | 0 mm | - | 731 W/m² | - |
| 1777359987 | -1.11° C | 94% | 1026.4 hPa | 0 mm | - | 62 W/m² | - |
| 1777359358 | -1.11° C | 94% | 1026.5 hPa | 0 mm | - | 61 W/m² | - |
| 1777358775 | -1.11° C | 97% | 1026.5 hPa | 0 mm | - | 60 W/m² | - |
| 1777356321 | -1.11° C | 93% | 1026.4 hPa | 0 mm | - | 84 W/m² | - |
| 1777352132 | -1.11° C | 93% | 1025.9 hPa | 0 mm | - | 41 W/m² | - |
| 1777349768 | -1.11° C | 93% | 1025.7 hPa | 0 mm | - | 23 W/m² | - |
| 1777348555 | -1.11° C | 94% | 1025.6 hPa | 0 mm | - | 10 W/m² | - |
| 1777342543 | -1.11° C | 93% | 1025.2 hPa | 0 mm | - | 0 W/m² | - |
| 1777341324 | -1.11° C | 93% | 1025.1 hPa | 0 mm | - | 0 W/m² | - |
| 1777338355 | -1.11° C | 94% | 1024.8 hPa | 0 mm | - | 0 W/m² | - |
| 1777315550 | -1.11° C | 97% | 1023.3 hPa | 0 mm | - | 2 W/m² | - |
| 1777313156 | - | 99% | 1023 hPa | 0 mm | - | 27 W/m² | - |
| 1777308356 | - | 99% | 1022.5 hPa | 0 mm | - | 135 W/m² | - |
| 1777307144 | - | 99% | 1022.5 hPa | 0 mm | - | 207 W/m² | - |
| 1777301134 | - | - | 1022.7 hPa | 0 mm | - | 403 W/m² | - |
| 1777299919 | - | - | 1022.7 hPa | 0 mm | - | 549 W/m² | - |
| 1777297546 | 44.44° C | 98% | 1022.7 hPa | 0 mm | - | 626 W/m² | - |
* Rain latest hour (hover to see other rain measurements)
** Current wind speed in m/s (hover to see current wind gust speed)